Tracking 28790 objects as of 19-Apr-2024
HD Live streaming from Space Station
objects crossing your sky now

COSMOS 2251 DEB

Track COSMOS 2251 DEB now!
10-day predictions


NORAD ID: 33922
Int'l Code: 1993-036EB
Perigee: 730.5 km
Apogee: 763.1 km
Inclination: 74.1 °
Period: 99.6 minutes
Semi major axis: 7117 km
RCS: 0.0386 m2 (small)
Launch date: June 16, 1993
Source: Commonwealth of Independent States (former USSR) (CIS)
Launch site: PLESETSK MISSILE AND SPACE COMPLEX (PKMTR)

Note: This is SATELLITE DEBRIS
Your satellite tracking list
Your tracking list is empty




NASA's NSSDC Master Catalog

Two Line Element Set (TLE):
1 33922U 93036EB  24109.63616965  .00004541  00000-0  12845-2 0  9994
2 33922  74.0512 195.5362 0022919  93.1722  28.0619 14.45721275798499
Source of the keplerian elements: AFSPC